Lid_Strength_Index
9 11 14 13 13 13 13 14 14 12 9 10 11 11 9 9 9 11 11 11 10 6 4 3 3 3 2 2 2 2 2 1 1 2 1 1 1 1 1 0 0 1 1 1
13 14 11 10 11 12 13 15 16 13 11 11 12 12 10 9 9 9 10 11 11 10 6 4 3 3 3 3 2 2 2 2 1 1 1 1 2 1 0 0 1 1 1 1
15 13 10 10 11 13 13 15 15 15 14 13 13 14 12 10 10 8 8 9 10 10 10 6 4 4 3 3 3 2 2 2 1 1 1 2 2 2 1 1 1 1 1 1
13 11 12 11 12 11 15 11 12 13 14 17 14 19 15 12 10 9 8 8 10 10 9 8 6 5 5 4 3 3 2 1 1 1 1 2 2 3 2 2 1 1 1 1
14 13 13 14 12 10 13 11 11 11 13 17 17 18 17 13 14 12 9 8 10 11 12 13 12 11 11 11 10 8 5 3 3 2 1 2 2 2 2 1 2 1 1 1
12 10 11 12 11 10 10 12 12 11 13 19 17 17 18 14 13 11 10 8 12 12 12 13 12 11 11 10 11 12 11 10 9 9 7 2 2 3 3 3 2 2 1 1
13 12 11 10 12 9 11 14 19 20 20 21 16 17 16 13 14 12 13 11 11 11 12 11 11 11 11 10 9 9 9 10 10 10 9 9 5 3 3 3 3 3 3 2
18 19 11 10 11 13 13 13 18 23 21 21 14 18 17 11 11 13 13 12 11 11 11 11 10 10 11 10 10 9 9 9 9 9 9 9 8 7 4 2 2 2 2 2
16 16 10 9 9 10 13 14 13 16 18 18 17 16 13 12 13 12 11 11 11 11 11 11 10 10 10 10 10 10 10 10 9 9 9 9 8 7 6 5 4 2 3 2
12 16 11 10 8 9 11 9 15 15 23 24 19 19 17 15 13 11 11 10 10 9 10 10 10 10 10 10 10 10 10 10 10 10 10 10 10 9 9 8 7 6 4 3
10 13 14 11 13 14 13 14 12 13 17 19 20 19 14 14 11 11 10 10 10 10 9 10 10 10 10 10 11 11 11 11 11 11 10 11 11 10 10 9 9 9 8 8
10 14 16 14 11 10 11 12 12 15 17 17 16 18 12 11 10 10 10 9 10 9 9 9 9 10 11 11 11 11 11 11 12 12 11 11 11 11 11 11 11 11 10 10
10 14 22 17 13 12 13 12 11 11 14 17 20 18 11 10 10 10 10 10 10 10 10 10 10 11 11 11 12 11 12 12 12 12 12 12 12 12 12 12 12 12 11 11
8 12 16 18 17 14 16 13 12 11 17 15 16 15 13 12 11 10 10 10 10 10 10 11 11 12 11 12 12 12 12 12 12 12 12 13 13 12 12 12 12 12 12 12
10 16 14 13 13 13 14 14 13 14 13 15 14 13 12 11 11 10 10 10 10 10 11 11 11 12 12 13 13 13 13 13 12 12 12 12 12 12 12 13 13 13 13 12
10 14 14 18 14 14 15 14 13 13 13 13 13 13 11 11 11 11 10 10 11 11 11 11 11 11 12 13 13 13 14 14 13 13 13 13 14 14 14 14 14 14 13 13
12 13 16 20 15 16 20 16 14 13 12 11 14 11 11 12 10 11 11 11 11 11 11 11 12 12 12 13 13 14 14 14 14 14 14 15 15 15 15 14 14 14 14 14
13 14 18 21 20 23 15 14 13 12 11 10 10 9 9 10 10 10 10 11 11 11 11 11 11 12 12 13 13 14 14 14 15 15 15 15 15 15 15 15 15 15 14 14
11 14 21 22 26 19 16 15 15 15 14 11 12 12 11 11 11 11 10 10 10 11 11 11 12 12 13 14 14 15 15 15 15 15 15 15 15 15 15 15 15 15 14 14
11 12 18 26 26 27 17 13 12 13 19 13 12 12 12 12 15 14 11 11 11 11 11 12 13 13 14 14 15 15 15 15 15 15 15 15 15 15 16 15 15 14 14 14
25 26 25 27 28 21 14 13 12 20 17 12 11 12 12 13 12 10 10 10 11 11 12 13 14 14 14 14 14 15 15 16 15 15 15 16 16 16 16 16 15 15 14 14
20 24 27 28 28 25 13 13 16 13 13 13 12 12 12 11 11 11 11 12 12 12 12 13 14 14 14 14 15 15 16 16 17 17 17 17 17 16 15 15 15 15 16 16
19 15 18 17 17 13 13 13 13 11 12 13 12 12 11 12 12 12 12 12 12 13 12 13 14 15 15 15 15 16 16 16 17 19 20 20 18 17 16 17 16 17 17 18
16 13 17 16 14 13 12 13 12 11 12 12 12 11 11 12 12 12 12 12 12 12 13 14 15 16 16 16 16 17 17 17 21 21 20 19 19 19 18 17 17 18 18 19
15 16 18 17 14 14 13 13 12 12 11 11 11 11 11 12 12 12 12 12 13 13 14 15 16 17 17 18 18 19 18 19 20 21 21 21 20 21 20 19 19 18 17 17
16 16 16 18 14 14 14 13 13 13 13 12 12 13 13 13 13 13 13 14 15 15 17 18 18 19 19 21 21 22 23 22 24 22 22 22 22 22 21 21 20 17 16 15